User: anonymous   Login
Location: Unspecified
(0.0000°N, 0.0000°E)
Time: 11:33:59
(UTC+00:00)
Language:

FREEDOM - Orbit

View from above orbital plane
View from above orbital plane
View from above satellite
View from above satellite

Ground track
Ground track

The orbit data is extracted from the following two-line orbital elements,

1 41932U 98067KU  17265.10200627  .00016642  00000-0  19059-3 0  9994
2 41932  51.6389 267.3949 0003607 287.2065  72.8535 15.62253740 38678
Epoch (UTC): 22 September 2017 02:26:53
Eccentricity: 0.0003607
inclination: 51.6389°
perigee height: 379 km
apogee height: 383 km
right ascension of ascending node: 267.3949°
argument of perigee: 287.2065°
revolutions per day: 15.62253740
mean anomaly at epoch: 72.8535°
orbit number at epoch: 3867

The dashed part of the orbit path shows where the satellite is in the earth's shadow,  

DLR